Back to catalog

CZ-6A DEB

AlivePO
NORAD 61078·DEBRIS·🇨🇳 China

Launched Aug 6, 2024 from Taiyuan Satellite Launch Center

Loading…

Next Passes (next 24 hours)

TLE

FreshSource: Space-Track

Epoch: Sep 14, 2026, 10:45 UTC

1 61078U 24140MU  26257.44857372  .00001594  00000-0  36872-3 0  9993
2 61078  89.0369 264.0722 0090361 339.0591  20.6925 14.52225768108567

Track CZ-6A DEB in real time with AllMySat

Download on the App Store